This is the latest recevied weather packets stored in our database for station/object KF0DL. If no packets are shown the sender has not sent any weather packets the latest 10 day(s).
| Time | Temp. | Humidity | Pressure | Rain* | Wind** | Luminosity | Snow |
|---|---|---|---|---|---|---|---|
| 1778187206 | 16.67° C | 16% | 1012.9 hPa | 0 mm | - | - | - |
| 1778186915 | 16.67° C | 16% | 1012.9 hPa | 0 mm | - | - | - |
| 1778186601 | 17.22° C | 16% | 1013.1 hPa | 0 mm | - | - | - |
| 1778186310 | 17.22° C | 17% | 1013.1 hPa | 0 mm | - | - | - |
| 1778186016 | 16.67° C | 16% | 1013.1 hPa | 0 mm | - | - | - |
| 1778185705 | 16.11° C | 18% | 1013.3 hPa | 0 mm | - | - | - |
| 1778185412 | 16.11° C | 16% | 1013.3 hPa | 0 mm | - | - | - |
| 1778185119 | 16.11° C | 17% | 1013.3 hPa | 0 mm | - | - | - |
| 1778184807 | 16.11° C | 16% | 1013.3 hPa | 0 mm | - | - | - |
| 1778184518 | 16.67° C | 16% | 1013.2 hPa | 0 mm | - | - | - |
| 1778184206 | 16.11° C | 16% | 1013.2 hPa | 0 mm | - | - | - |
| 1778183911 | 16.11° C | 17% | 1013.2 hPa | 0 mm | - | - | - |
| 1778183619 | 16.11° C | 17% | 1013.4 hPa | 0 mm | - | - | - |
| 1778183306 | 15.56° C | 17% | 1013.4 hPa | 0 mm | - | - | - |
| 1778183012 | 15.56° C | 16% | 1013.4 hPa | 0 mm | - | - | - |
| 1778182700 | 15.56° C | 17% | 1013.4 hPa | 0 mm | - | - | - |
| 1778182407 | 16.11° C | 17% | 1013.4 hPa | 0 mm | - | - | - |
| 1778182113 | 15.56° C | 17% | 1013.4 hPa | 0 mm | - | - | - |
| 1778181807 | 16.11° C | 17% | 1013.4 hPa | 0 mm | - | - | - |
| 1778181514 | 16.67° C | 16% | 1013.4 hPa | 0 mm | - | - | - |
| 1778181199 | 16.11° C | 17% | 1013.3 hPa | 0 mm | - | - | - |
| 1778180909 | 16.11° C | 17% | 1013.3 hPa | 0 mm | - | - | - |
| 1778180615 | 15.56° C | 17% | 1013.3 hPa | 0 mm | - | - | - |
| 1778180300 | 15.56° C | 16% | 1013.4 hPa | 0 mm | - | - | - |
| 1778180009 | 15.56° C | 18% | 1014.3 hPa | 0 mm | - | - | - |
* Rain latest hour (hover to see other rain measurements)
** Current wind speed in m/s (hover to see current wind gust speed)